• en Suisse
  • Liste des pays
  • À 7 jours
  • Température de l'eau
  • Carte satellitaire
  • Carte météo
  • Widgets météo
  • user-avatar
    Se connecter

    Météo par heure à Serhiivka

    Ce jour, 26 Avril, Jeudi

    Heure Température Précipitation Vent Pression Humidité
    00:00 +16°C° 0,1 mm 5 m/s 729 mmHg 75%
    01:00 +15°C° 0,1 mm 5 m/s 730 mmHg 77%
    02:00 +14°C° 0 mm 3 m/s 729 mmHg 83%
    03:00 +14°C° 0 mm 3 m/s 729 mmHg 85%
    04:00 +13°C° 0 mm 3 m/s 730 mmHg 88%
    05:00 +13°C° 0 mm 3 m/s 730 mmHg 90%
    06:00 +14°C° 0 mm 3 m/s 730 mmHg 83%
    07:00 +15°C° 0 mm 4 m/s 731 mmHg 76%
    08:00 +17°C° 0 mm 4 m/s 731 mmHg 67%
    09:00 +18°C° 0 mm 4 m/s 732 mmHg 63%
    10:00 +19°C° 0 mm 4 m/s 732 mmHg 59%
    11:00 +19°C° 0 mm 4 m/s 732 mmHg 55%
    12:00 +20°C° 0 mm 4 m/s 732 mmHg 54%
    13:00 +20°C° 0 mm 3 m/s 732 mmHg 53%
    14:00 +20°C° 0 mm 4 m/s 732 mmHg 52%
    15:00 +19°C° 0 mm 3 m/s 732 mmHg 55%
    16:00 +18°C° 0 mm 3 m/s 732 mmHg 59%
    17:00 +17°C° 0 mm 3 m/s 732 mmHg 62%
    18:00 +16°C° 0,2 mm 3 m/s 732 mmHg 66%
    19:00 +14°C° 0,2 mm 3 m/s 732 mmHg 70%
    20:00 +13°C° 0,2 mm 3 m/s 732 mmHg 73%
    21:00 +12°C° 0,5 mm 3 m/s 732 mmHg 76%
    22:00 +13°C° 0,5 mm 2 m/s 732 mmHg 79%
    23:00 +12°C° 0,5 mm 2 m/s 733 mmHg 82%

    Demain, 27 Avril, Vendredi

    Heure Température Précipitation Vent Pression Humidité
    00:00 +12°C° 0,4 mm 2 m/s 733 mmHg 84%
    01:00 +12°C° 0,4 mm 2 m/s 733 mmHg 86%
    02:00 +11°C° 0,4 mm 1 m/s 733 mmHg 88%
    03:00 +10°C° 0,1 mm 2 m/s 733 mmHg 89%
    04:00 +10°C° 0,1 mm 3 m/s 733 mmHg 89%
    05:00 +10°C° 0,1 mm 3 m/s 734 mmHg 90%
    06:00 +10°C° 0 mm 4 m/s 734 mmHg 86%
    07:00 +10°C° 0 mm 5 m/s 735 mmHg 82%
    08:00 +10°C° 0 mm 5 m/s 735 mmHg 78%
    09:00 +12°C° 0 mm 5 m/s 735 mmHg 71%
    10:00 +13°C° 0 mm 5 m/s 735 mmHg 63%
    11:00 +14°C° 0 mm 5 m/s 736 mmHg 56%
    12:00 +15°C° 0 mm 5 m/s 736 mmHg 53%
    13:00 +15°C° 0 mm 5 m/s 736 mmHg 49%
    14:00 +16°C° 0 mm 5 m/s 736 mmHg 46%
    15:00 +17°C° 0 mm 4 m/s 736 mmHg 47%
    16:00 +15°C° 0 mm 4 m/s 736 mmHg 48%
    17:00 +15°C° 0 mm 4 m/s 736 mmHg 49%
    18:00 +14°C° 0 mm 3 m/s 736 mmHg 54%
    19:00 +13°C° 0 mm 2 m/s 736 mmHg 60%
    20:00 +12°C° 0 mm 2 m/s 737 mmHg 65%
    21:00 +11°C° 0 mm 1 m/s 737 mmHg 67%
    22:00 +10°C° 0 mm 1 m/s 737 mmHg 69%
    23:00 +10°C° 0 mm 1 m/s 737 mmHg 71%

    Après-demain, 28 Avril, Samedi

    Heure Température Précipitation Vent Pression Humidité
    00:00 +10°C° 0 mm 1 m/s 737 mmHg 72%
    01:00 +9°C° 0 mm 1 m/s 737 mmHg 72%
    02:00 +9°C° 0 mm 1 m/s 738 mmHg 73%
    03:00 +8°C° 0 mm 2 m/s 738 mmHg 74%
    04:00 +8°C° 0 mm 2 m/s 738 mmHg 75%
    05:00 +7°C° 0 mm 2 m/s 738 mmHg 76%
    06:00 +9°C° 0 mm 3 m/s 738 mmHg 72%
    07:00 +11°C° 0 mm 3 m/s 738 mmHg 67%
    08:00 +12°C° 0 mm 4 m/s 738 mmHg 63%
    09:00 +14°C° 0 mm 4 m/s 738 mmHg 59%
    10:00 +16°C° 0 mm 5 m/s 738 mmHg 55%
    11:00 +17°C° 0 mm 5 m/s 738 mmHg 51%
    12:00 +19°C° 0 mm 5 m/s 737 mmHg 50%
    13:00 +20°C° 0 mm 5 m/s 737 mmHg 50%
    14:00 +21°C° 0 mm 5 m/s 737 mmHg 50%
    15:00 +21°C° 0 mm 5 m/s 737 mmHg 51%
    16:00 +21°C° 0 mm 5 m/s 736 mmHg 53%
    17:00 +21°C° 0 mm 4 m/s 736 mmHg 54%
    18:00 +20°C° 0 mm 4 m/s 736 mmHg 61%
    19:00 +18°C° 0 mm 4 m/s 736 mmHg 69%
    20:00 +16°C° 0 mm 3 m/s 736 mmHg 76%
    21:00 +16°C° 0 mm 3 m/s 736 mmHg 77%
    22:00 +15°C° 0 mm 4 m/s 736 mmHg 78%
    23:00 +15°C° 0 mm 4 m/s 736 mmHg 79%

    29 Avril, Dimanche

    Heure Température Précipitation Vent Pression Humidité
    00:00 +14°C° 0 mm 4 m/s 736 mmHg 80%
    01:00 +14°C° 0 mm 4 m/s 736 mmHg 80%
    02:00 +14°C° 0 mm 5 m/s 736 mmHg 81%
    03:00 +13°C° 0 mm 4 m/s 736 mmHg 82%
    04:00 +13°C° 0 mm 4 m/s 736 mmHg 83%
    05:00 +12°C° 0 mm 4 m/s 736 mmHg 84%
    06:00 +13°C° 0 mm 5 m/s 736 mmHg 80%
    07:00 +15°C° 0 mm 5 m/s 736 mmHg 76%
    08:00 +16°C° 0 mm 5 m/s 736 mmHg 71%
    09:00 +19°C° 0 mm 6 m/s 737 mmHg 65%
    10:00 +21°C° 0 mm 6 m/s 737 mmHg 59%
    11:00 +22°C° 0 mm 7 m/s 737 mmHg 53%
    12:00 +23°C° 0 mm 7 m/s 736 mmHg 50%
    13:00 +24°C° 0 mm 7 m/s 736 mmHg 47%
    14:00 +24°C° 0 mm 7 m/s 736 mmHg 44%
    15:00 +24°C° 0 mm 7 m/s 736 mmHg 45%
    16:00 +23°C° 0 mm 6 m/s 735 mmHg 46%
    17:00 +23°C° 0 mm 6 m/s 735 mmHg 48%
    18:00 +21°C° 0 mm 5 m/s 735 mmHg 52%
    19:00 +19°C° 0 mm 5 m/s 735 mmHg 57%
    20:00 +17°C° 0 mm 5 m/s 735 mmHg 62%
    21:00 +16°C° 0 mm 5 m/s 735 mmHg 61%
    22:00 +16°C° 0 mm 6 m/s 735 mmHg 61%
    23:00 +15°C° 0 mm 6 m/s 735 mmHg 60%

    30 Avril, Lundi

    Heure Température Précipitation Vent Pression Humidité
    00:00 +15°C° 0 mm 6 m/s 734 mmHg 60%
    01:00 +14°C° 0 mm 7 m/s 734 mmHg 59%
    02:00 +14°C° 0 mm 7 m/s 734 mmHg 58%
    03:00 +12°C° 0 mm 7 m/s 734 mmHg 58%
    04:00 +13°C° 0 mm 6 m/s 734 mmHg 59%
    05:00 +11°C° 0 mm 6 m/s 734 mmHg 60%
    06:00 +13°C° 0 mm 6 m/s 734 mmHg 58%
    07:00 +14°C° 0 mm 7 m/s 734 mmHg 56%
    08:00 +15°C° 0 mm 7 m/s 734 mmHg 53%
    09:00 +17°C° 0 mm 7 m/s 734 mmHg 50%
    10:00 +18°C° 0 mm 7 m/s 734 mmHg 47%
    11:00 +21°C° 0 mm 7 m/s 734 mmHg 44%
    12:00 +22°C° 0 mm 7 m/s 734 mmHg 43%
    13:00 +23°C° 0 mm 7 m/s 733 mmHg 41%
    14:00 +24°C° 0 mm 7 m/s 733 mmHg 40%
    15:00 +23°C° 0 mm 7 m/s 733 mmHg 42%
    16:00 +23°C° 0 mm 6 m/s 733 mmHg 45%
    17:00 +23°C° 0 mm 6 m/s 732 mmHg 47%
    18:00 +21°C° 0 mm 5 m/s 733 mmHg 53%
    19:00 +19°C° 0 mm 4 m/s 733 mmHg 58%
    20:00 +17°C° 0 mm 4 m/s 733 mmHg 64%
    21:00 +17°C° 0 mm 4 m/s 733 mmHg 65%
    22:00 +15°C° 0 mm 4 m/s 733 mmHg 66%
    23:00 +15°C° 0 mm 4 m/s 733 mmHg 66%

    1 Mai, Mardi

    Heure Température Précipitation Vent Pression Humidité
    00:00 +14°C° 0 mm 4 m/s 733 mmHg 67%
    01:00 +13°C° 0 mm 4 m/s 733 mmHg 68%
    02:00 +13°C° 0 mm 3 m/s 733 mmHg 68%
    03:00 +12°C° 0 mm 3 m/s 733 mmHg 69%
    04:00 +13°C° 0 mm 2 m/s 734 mmHg 70%
    05:00 +12°C° 0 mm 2 m/s 734 mmHg 71%
    06:00 +14°C° 0 mm 2 m/s 734 mmHg 68%
    07:00 +15°C° 0 mm 2 m/s 734 mmHg 65%
    08:00 +17°C° 0 mm 2 m/s 735 mmHg 63%
    09:00 +19°C° 0 mm 2 m/s 735 mmHg 59%
    10:00 +20°C° 0 mm 3 m/s 735 mmHg 55%
    11:00 +22°C° 0 mm 3 m/s 735 mmHg 51%
    12:00 +24°C° 0 mm 3 m/s 735 mmHg 48%
    13:00 +25°C° 0 mm 3 m/s 735 mmHg 45%
    14:00 +26°C° 0 mm 3 m/s 735 mmHg 42%
    15:00 +26°C° 0 mm 3 m/s 735 mmHg 42%
    16:00 +26°C° 0 mm 3 m/s 734 mmHg 43%
    17:00 +26°C° 0 mm 3 m/s 734 mmHg 44%
    18:00 +24°C° 0 mm 3 m/s 734 mmHg 49%
    19:00 +21°C° 0 mm 2 m/s 734 mmHg 54%
    20:00 +19°C° 0 mm 2 m/s 734 mmHg 59%
    21:00 +18°C° 0 mm 2 m/s 734 mmHg 60%
    22:00 +17°C° 0 mm 3 m/s 734 mmHg 61%
    23:00 +16°C° 0 mm 3 m/s 734 mmHg 62%
    Voir plus